STARLINK-4715, 53801

Orbit data source: Space-Track

STARLINK-4715, 53801 is a payload satellite owned by SpaceX/Seattle (US) in LEO that was launched on Sun, 11 Sep 2022 UTC via an FALCON 9 launch vehicle from the Air Force Eastern Test Range (AFETR). Payload-class satellites include a variety of spacecraft equipped with specific instruments for various scientific and technological missions. These include communications satellites like Starlink; space stations such as the ISS; scientific satellites like the Hubble; Earth observation satellites from companies like Planet Labs, Umbra, and HawkEye 360; GPS; miniature CubeSats for education and research; and military/defense satellites.

Loading next visibility...
Identifier
53801, 2022-111AE
Orbit
LEO
Country
Flag of USUS
Related business
Manufacturer
SpaceX/Seattle
Mission
Operational Commercial Communications
Bus & Motor
STARLINK, Unknown motor
Mass
305 kg wet, ~290 kg dry
Launch date (UTC)
2022-09-11 (3 years ago)
Launch vehicle
FALCON 9
Launch site
Air Force Eastern Test Range (AFETR)
Object type
Payload
Rocket body
Debris
Shape & HBR
Box + 1 Pan, 10.1 m
Radar Cross Section
13.562 m², Large (>1 m²)

Expand to show TLE details & history
Last TLE update: 15 hours ago

TLE from 15 hours ago
0 STARLINK-4715
1 53801U 22111AE  26037.44888033  .00000366  00000-0  41103-4 0  9998
2 53801  53.2185  44.1111 0001997 109.1308 250.9901 15.08842936189104
Epoch: 2026-02-06T10:46Z
TLE epoch observation values (Epoch: 2026-02-06T10:46:23.260Z)
Latitude
0.00002°
Longitude
105.92759°
Altitude
541.082 km
Speed
7.593 km/s
True Right ascension
02h 56m 26s
True Declination
0° 00' 00"
Sunlit
Object was in daylight at epoch
Visualization orbit readout
Latitude
Unknown
Longitude
Unknown
Altitude
Unknown
Speed
Unknown
Apparent Right ascension
Unknown
Apparent Declination
Unknown
Sunlit
N/A
Visualization observer readout
Local Sidereal Time
04:20:37
Azimuth
Unknown
Elevation
Unknown
Doppler factor
Unknown
Orbital elements
Apogee altitude
541.361 km
Perigee altitude
538.598 km
Semi-major axis
6,918.116 km
Eccentricity
0.0002
Inclination
53.2185°
RAAN
44.1111°
Arg. of periapsis
109.1308°
True anomaly
250.96847°
Mean anomaly
250.9901°
Eccentric anomaly
250.97928°
Mean motion
3.77191 °/min
Orbital period
95.44 mins
BSTAR
0.000041103
Loading maneuver chart data...
Computing Atmospheric mass density...
Loading historical data...
Loading historical data...
Loading historical data...
Loading historical data...
Loading historical data...
Loading historical data...
Loading historical data...

Documentation

Showing up to 5 results
|